This is the latest recevied weather packets stored in our database for station/object SV8FES. If no packets are shown the sender has not sent any weather packets the latest 10 day(s).
| Time | Temp. | Humidity | Pressure | Rain* | Wind** | Luminosity | Snow |
|---|---|---|---|---|---|---|---|
| 1787838845 | 30.56° C | 58% | 1013.2 hPa | 0 mm | - | 490 W/m² | - |
| 1787838784 | 30.56° C | 58% | 1013.4 hPa | 0 mm | - | 494 W/m² | - |
| 1787838724 | 31.11° C | 59% | 1013.3 hPa | 0 mm | - | 494 W/m² | - |
| 1787838663 | 31.11° C | 58% | 1013.4 hPa | 0 mm | - | 492 W/m² | - |
| 1787838603 | 31.11° C | 57% | 1013.4 hPa | 0 mm | - | 499 W/m² | - |
| 1787838544 | 31.11° C | 57% | 1013.3 hPa | 0 mm | - | 503 W/m² | - |
| 1787838484 | 31.11° C | 58% | 1013.3 hPa | 0 mm | - | 506 W/m² | - |
| 1787838425 | 31.11° C | 58% | 1013.2 hPa | 0 mm | - | 508 W/m² | - |
| 1787838363 | 31.11° C | 57% | 1013.3 hPa | 0 mm | - | 510 W/m² | - |
| 1787838302 | 31.11° C | 57% | 1013.3 hPa | 0 mm | - | 512 W/m² | - |
| 1787838246 | 31.11° C | 57% | 1013.2 hPa | 0 mm | - | 517 W/m² | - |
| 1787838183 | 30.56° C | 58% | 1013.2 hPa | 0 mm | - | 515 W/m² | - |
| 1787838122 | 30.56° C | 58% | 1013.2 hPa | 0 mm | - | 519 W/m² | - |
| 1787838062 | 30.56° C | 59% | 1013.3 hPa | 0 mm | - | 522 W/m² | - |
| 1787838004 | 30.56° C | 59% | 1013.2 hPa | 0 mm | - | 526 W/m² | - |
| 1787837943 | 30.56° C | 59% | 1013.2 hPa | 0 mm | - | 529 W/m² | - |
| 1787837883 | 30.56° C | 59% | 1013.4 hPa | 0 mm | - | 533 W/m² | - |
| 1787837822 | 30.56° C | 59% | 1013.3 hPa | 0 mm | - | 534 W/m² | - |
| 1787837767 | 30.56° C | 60% | 1013.4 hPa | 0 mm | - | 538 W/m² | - |
| 1787837702 | 30.56° C | 60% | 1013.3 hPa | 0 mm | - | 536 W/m² | - |
| 1787837643 | 30.56° C | 59% | 1013.4 hPa | 0 mm | - | 540 W/m² | - |
| 1787837582 | 30.56° C | 59% | 1013.4 hPa | 0 mm | - | 543 W/m² | - |
| 1787837523 | 31.11° C | 59% | 1013.4 hPa | 0 mm | - | 541 W/m² | - |
| 1787837463 | 30.56° C | 60% | 1013.3 hPa | 0 mm | - | 543 W/m² | - |
| 1787837402 | 30.56° C | 60% | 1013.3 hPa | 0 mm | - | 548 W/m² | - |
* Rain latest hour (hover to see other rain measurements)
** Current wind speed in m/s (hover to see current wind gust speed)